#timestamp,LO_Frequency,Hit,StdDev 
1564351215.5,286047000.0,N
1564351235.4,286047000.3,N
1564351255.2,286047000.6,N
1564351275.0,286047001.0,N
1564351275.9,286047001.0,N
1564351295.8,286047001.1,N
1564351315.6,286047001.0,N
1564351335.5,286046998.3,N
1564351355.3,286046998.9,N
1564351375.1,286046998.8,N
1564351395.9,286046999.1,N
1564351415.7,286046996.6,N
1564351435.6,286046996.5,N
1564351455.4,286046996.9,N
1564351475.2,286046996.6,N
1564351495.1,286046996.5,N
1564351496.0,286046996.5,N
1564351515.8,286046997.5,N
1564351535.6,286046997.8,N
1564351555.5,286046997.1,N
1564351575.3,286046997.4,N
1564351595.2,286046995.0,Y
1564351615.0,286046997.4,P
1564351615.9,286046997.4,P
1564351635.7,286046996.8,P
1564351655.6,286046997.4,Y
1564351675.4,286046998.6,P
1564351695.3,286046998.5,P
1564351715.1,286047001.1,N
1564351735.8,286046998.1,N
1564351755.7,286046998.8,N
1564351775.5,286046998.6,N
1564351795.4,286046998.9,N
1564351815.2,286046998.9,N
1564351835.0,286046996.6,Y
1564351835.9,286046996.6,P
1564351855.8,286047000.9,N
1564351875.6,286047001.1,N
1564351895.5,286046998.8,N
1564351915.3,286046998.8,N
1564351935.1,286046999.4,N
1564351955.9,286046998.5,N
1564351975.7,286046999.4,N
1564351995.5,286046999.2,N
1564352015.4,286046998.9,N
1564352035.2,286046999.4,N
1564352055.1,286046999.0,N
1564352056.0,286046999.0,N
1564352075.8,286046999.5,N
1564352095.7,286046999.1,N
1564352115.5,286046998.5,N
1564352135.3,286046998.4,N
1564352155.2,286046999.6,N
1564352175.0,286046999.3,N
1564352175.9,286046999.3,N
1564352195.7,286046999.4,N
1564352215.6,286046999.0,N
1564352235.4,286046998.7,N
1564352255.3,286046999.1,N
1564352275.1,286046997.6,Y
1564352295.8,286046996.7,P
1564352315.7,286046998.9,N
1564352335.5,286046996.8,N
1564352355.4,286046997.6,N
1564352375.2,286046995.3,Y
1564352395.0,286047000.6,P
1564352395.9,286047000.6,N
1564352415.8,286047000.0,N
1564352435.6,286047002.8,N
1564352455.5,286047002.3,N
1564352475.3,286047002.5,N
1564352495.1,286047002.5,N
1564352515.9,286047000.1,N
1564352535.7,286046999.8,N
1564352555.6,286047002.4,N
1564352575.4,286047002.7,N
1564352595.2,286046999.9,N
1564352615.1,286047000.5,N
1564352616.0,286047000.5,N
1564352635.8,286047000.0,N
1564352655.6,286047002.7,N
1564352675.5,286047001.6,N
1564352695.3,286047001.6,N
1564352715.2,286047002.1,N
1564352735.9,286047002.6,N
1564352755.7,286047001.9,N
1564352775.6,286047000.2,N
1564352795.4,286047000.1,N
1564352815.3,286047000.9,N
1564352835.1,286046999.9,N
1564352836.0,286046999.9,N
1564352855.8,286047000.2,N
1564352875.7,286047000.2,N
1564352895.5,286047002.7,N
1564352915.4,286047001.1,N
1564352935.2,286046999.8,N
1564352955.0,286047001.5,N
1564352955.9,286047001.5,N
1564352975.8,286047003.5,Y
1564352995.6,286047002.0,P
1564353015.4,286047001.7,P
1564353035.3,286047004.0,P
1564353055.1,286047001.5,N
1564353075.9,286047001.8,N
1564353095.7,286047004.0,Y
1564353115.5,286047002.4,P
1564353135.4,286047000.1,N
1564353155.2,286047002.4,N
1564353175.1,286047001.9,N
1564353176.0,286047001.9,N
1564353195.8,286047002.0,N
1564353215.6,286047002.2,N
1564353235.5,286047000.2,N
1564353255.3,286047002.4,N
1564353275.1,286046999.7,N
1564353295.9,286046999.8,N
1564353315.7,286046999.8,N
1564353335.6,286047002.3,N
1564353355.4,286047002.7,N
1564353375.2,286047000.2,N
1564353395.1,286047002.4,N
1564353396.0,286047002.4,N
1564353415.8,286047001.3,N
1564353435.7,286047000.0,N
1564353455.5,286047002.5,N
1564353475.3,286047001.7,N
1564353495.2,286047001.7,N
1564353515.9,286047001.3,N
1564353535.7,286047003.8,Y
1564353555.6,286047002.7,P
1564353575.4,286047000.0,N
1564353595.3,286047000.6,N
1564353615.1,286046998.3,N
1564353616.0,286046998.3,N
1564353635.8,286046998.1,N
1564353655.7,286046998.1,N
1564353675.5,286046998.5,N
1564353695.3,286046998.4,N
1564353715.2,286047000.8,N
1564353735.0,286047000.6,N
1564353735.9,286047000.6,N
1564353755.8,286047000.8,N
1564353775.6,286047000.6,N
1564353795.4,286046999.8,N
1564353815.3,286047000.1,N
1564353835.1,286046999.9,N
1564353855.9,286047000.0,N
1564353875.7,286047000.7,N
1564353895.5,286047002.4,N
1564353915.4,286047000.3,N
1564353935.2,286047000.6,N
1564353955.0,286047000.3,N
1564353956.0,286047000.3,N
1564353975.8,286047002.6,N
1564353995.6,286047002.0,N
1564354015.5,286047002.1,N
1564354035.3,286047001.3,N
1564354055.1,286047002.3,N
1564354075.9,286047002.4,N
1564354095.7,286047002.1,N
1564354115.6,286047002.5,N
1564354135.4,286047002.8,N
1564354155.2,286047002.4,N
1564354175.1,286047002.2,N
1564354176.0,286047002.2,N
1564354195.8,286047002.6,N
1564354215.6,286046999.9,N
1564354235.5,286047002.7,N
1564354255.3,286047000.0,N
1564354275.2,286046999.7,N
1564354295.0,286047001.6,N
1564354295.9,286047001.6,N
1564354315.7,286047001.7,N
1564354335.6,286047002.3,N
1564354355.4,286047004.1,Y
1564354375.3,286047001.6,P
1564354395.1,286047002.0,P
1564354415.8,286047002.3,P
1564354435.7,286046999.7,N
1564354455.5,286047002.4,N
1564354475.4,286047000.9,N
1564354495.2,286047000.6,N
1564354515.0,286047000.6,N
1564354516.0,286047000.6,N
1564354535.8,286047000.7,N
1564354555.6,286047000.4,N
1564354575.5,286046998.1,N
1564354595.3,286046998.5,N
1564354615.1,286046998.8,N
1564354635.9,286046998.9,N
1564354655.7,286046999.1,N
1564354675.6,286046996.6,N
1564354695.4,286046996.9,N
1564354715.2,286046996.8,N
1564354735.1,286046997.0,N
1564354736.0,286046997.0,N
1564354755.8,286046996.7,N
1564354775.6,286046997.1,N
1564354795.5,286046999.4,N
